Hourly Weather Rusava

Today, 22 April, Thursday

Time Temperature Precipitation Wind Pressure Humidity
00:00 +8°C° 0 mm 2 mps 747 mmHg 71%
01:00 +8°C° 0 mm 2 mps 747 mmHg 71%
02:00 +9°C° 0 mm 1 mps 748 mmHg 73%
03:00 +8°C° 0 mm 1 mps 748 mmHg 74%
04:00 +8°C° 0 mm 1 mps 748 mmHg 75%
05:00 +8°C° 0 mm 1 mps 748 mmHg 76%
06:00 +8°C° 0 mm 2 mps 748 mmHg 71%
07:00 +10°C° 0 mm 2 mps 748 mmHg 67%
08:00 +12°C° 0 mm 2 mps 748 mmHg 63%
09:00 +13°C° 0 mm 3 mps 748 mmHg 57%
10:00 +14°C° 0 mm 3 mps 748 mmHg 52%
11:00 +17°C° 0 mm 4 mps 748 mmHg 47%
12:00 +17°C° 0 mm 4 mps 748 mmHg 45%
13:00 +18°C° 0 mm 4 mps 748 mmHg 42%
14:00 +19°C° 0 mm 4 mps 748 mmHg 39%
15:00 +18°C° 0 mm 4 mps 747 mmHg 41%
16:00 +18°C° 0 mm 4 mps 747 mmHg 42%
17:00 +18°C° 0 mm 4 mps 747 mmHg 43%
18:00 +16°C° 0.3 mm 3 mps 747 mmHg 53%
19:00 +14°C° 0.3 mm 2 mps 747 mmHg 64%
20:00 +12°C° 0.3 mm 2 mps 747 mmHg 75%
21:00 +12°C° 0.6 mm 1 mps 747 mmHg 77%
22:00 +12°C° 0.6 mm 1 mps 747 mmHg 80%
23:00 +11°C° 0.6 mm 1 mps 747 mmHg 82%

Tomorrow, 23 April, Friday

Time Temperature Precipitation Wind Pressure Humidity
00:00 +9°C° 0.1 mm 2 mps 747 mmHg 85%
01:00 +9°C° 0.1 mm 3 mps 747 mmHg 87%
02:00 +7°C° 0.1 mm 4 mps 747 mmHg 90%
03:00 +7°C° 0 mm 3 mps 747 mmHg 90%
04:00 +7°C° 0 mm 3 mps 748 mmHg 91%
05:00 +5°C° 0 mm 3 mps 748 mmHg 91%
06:00 +7°C° 0 mm 3 mps 748 mmHg 84%
07:00 +6°C° 0 mm 4 mps 749 mmHg 78%
08:00 +7°C° 0 mm 4 mps 749 mmHg 71%
09:00 +8°C° 0.2 mm 3 mps 749 mmHg 71%
10:00 +8°C° 0.2 mm 3 mps 749 mmHg 70%
11:00 +8°C° 0.2 mm 2 mps 750 mmHg 69%
12:00 +8°C° 0.3 mm 2 mps 750 mmHg 68%
13:00 +8°C° 0.3 mm 2 mps 750 mmHg 66%
14:00 +9°C° 0.3 mm 2 mps 750 mmHg 64%
15:00 +9°C° 0.1 mm 3 mps 749 mmHg 60%
16:00 +10°C° 0.1 mm 3 mps 749 mmHg 56%
17:00 +11°C° 0.1 mm 4 mps 749 mmHg 52%
18:00 +9°C° 0 mm 3 mps 749 mmHg 56%
19:00 +8°C° 0 mm 3 mps 750 mmHg 61%
20:00 +7°C° 0 mm 2 mps 750 mmHg 66%
21:00 +6°C° 0 mm 2 mps 750 mmHg 68%
22:00 +5°C° 0 mm 2 mps 750 mmHg 70%
23:00 +5°C° 0 mm 2 mps 750 mmHg 72%

Day after tomorrow, 24 April, Saturday

Time Temperature Precipitation Wind Pressure Humidity
00:00 +5°C° 0 mm 2 mps 750 mmHg 75%
01:00 +4°C° 0 mm 2 mps 750 mmHg 78%
02:00 +4°C° 0 mm 2 mps 750 mmHg 80%
03:00 +3°C° 0 mm 3 mps 750 mmHg 81%
04:00 +3°C° 0 mm 4 mps 750 mmHg 81%
05:00 +2°C° 0 mm 5 mps 750 mmHg 81%
06:00 +2°C° 0 mm 6 mps 750 mmHg 77%
07:00 +2°C° 0 mm 7 mps 751 mmHg 73%
08:00 +2°C° 0 mm 8 mps 751 mmHg 69%
09:00 +4°C° 0 mm 8 mps 752 mmHg 58%
10:00 +5°C° 0 mm 8 mps 752 mmHg 48%
11:00 +6°C° 0 mm 8 mps 752 mmHg 38%
12:00 +7°C° 0 mm 8 mps 752 mmHg 36%
13:00 +8°C° 0 mm 7 mps 752 mmHg 35%
14:00 +9°C° 0 mm 7 mps 751 mmHg 33%
15:00 +9°C° 0 mm 7 mps 751 mmHg 36%
16:00 +8°C° 0 mm 6 mps 751 mmHg 38%
17:00 +8°C° 0 mm 6 mps 751 mmHg 40%
18:00 +7°C° 0 mm 4 mps 752 mmHg 46%
19:00 +5°C° 0 mm 3 mps 752 mmHg 52%
20:00 +6°C° 0 mm 1 mps 752 mmHg 59%
21:00 +6°C° 0 mm 1 mps 752 mmHg 59%
22:00 +6°C° 0 mm 1 mps 752 mmHg 60%
23:00 +5°C° 0 mm 1 mps 752 mmHg 61%

25 April, Sunday

Time Temperature Precipitation Wind Pressure Humidity
00:00 +5°C° 0 mm 1 mps 752 mmHg 61%
01:00 +5°C° 0 mm 1 mps 752 mmHg 62%
02:00 +3°C° 0 mm 2 mps 752 mmHg 63%
03:00 +3°C° 0 mm 2 mps 751 mmHg 63%
04:00 +3°C° 0 mm 2 mps 751 mmHg 64%
05:00 +3°C° 0 mm 2 mps 751 mmHg 64%
06:00 +3°C° 0 mm 3 mps 751 mmHg 59%
07:00 +5°C° 0 mm 3 mps 751 mmHg 55%
08:00 +7°C° 0 mm 4 mps 750 mmHg 50%
09:00 +8°C° 0 mm 5 mps 750 mmHg 50%
10:00 +9°C° 0 mm 5 mps 750 mmHg 50%
11:00 +12°C° 0 mm 5 mps 750 mmHg 50%
12:00 +12°C° 0 mm 5 mps 749 mmHg 49%
13:00 +13°C° 0 mm 5 mps 749 mmHg 47%
14:00 +13°C° 0 mm 5 mps 749 mmHg 46%
15:00 +12°C° 0 mm 5 mps 749 mmHg 49%
16:00 +12°C° 0 mm 5 mps 749 mmHg 52%
17:00 +10°C° 0 mm 5 mps 749 mmHg 55%
18:00 +10°C° 0 mm 4 mps 749 mmHg 59%
19:00 +9°C° 0 mm 3 mps 749 mmHg 62%
20:00 +8°C° 0 mm 3 mps 750 mmHg 66%
21:00 +7°C° 0 mm 2 mps 750 mmHg 67%
22:00 +6°C° 0 mm 2 mps 750 mmHg 68%
23:00 +5°C° 0 mm 2 mps 750 mmHg 69%

26 April, Monday

Time Temperature Precipitation Wind Pressure Humidity
00:00 +5°C° 0 mm 2 mps 750 mmHg 68%
01:00 +5°C° 0 mm 1 mps 750 mmHg 67%
02:00 +5°C° 0 mm 1 mps 750 mmHg 67%
03:00 +5°C° 0 mm 1 mps 750 mmHg 68%
04:00 +3°C° 0 mm 2 mps 750 mmHg 70%
05:00 +3°C° 0 mm 2 mps 750 mmHg 71%
06:00 +4°C° 0 mm 2 mps 750 mmHg 66%
07:00 +5°C° 0 mm 3 mps 750 mmHg 60%
08:00 +6°C° 0 mm 4 mps 750 mmHg 55%
09:00 +7°C° 0 mm 4 mps 750 mmHg 50%
10:00 +8°C° 0 mm 5 mps 750 mmHg 45%
11:00 +9°C° 0 mm 5 mps 749 mmHg 40%
12:00 +9°C° 0 mm 6 mps 749 mmHg 39%
13:00 +9°C° 0 mm 6 mps 749 mmHg 39%
14:00 +10°C° 0 mm 6 mps 749 mmHg 39%
15:00 +10°C° 0 mm 6 mps 748 mmHg 40%
16:00 +9°C° 0 mm 5 mps 748 mmHg 41%
17:00 +9°C° 0 mm 5 mps 748 mmHg 42%
18:00 +8°C° 0 mm 4 mps 748 mmHg 46%
19:00 +8°C° 0 mm 3 mps 748 mmHg 50%
20:00 +7°C° 0 mm 2 mps 749 mmHg 53%
21:00 +8°C° 0 mm 1 mps 749 mmHg 54%
22:00 +7°C° 0 mm 1 mps 749 mmHg 56%
23:00 +7°C° 0 mm 1 mps 749 mmHg 57%

27 April, Tuesday

Time Temperature Precipitation Wind Pressure Humidity
00:00 +7°C° 0 mm 1 mps 749 mmHg 58%
01:00 +6°C° 0 mm 1 mps 749 mmHg 60%
02:00 +6°C° 0 mm 1 mps 749 mmHg 62%
03:00 +6°C° 0 mm 1 mps 749 mmHg 63%
04:00 +6°C° 0 mm 1 mps 748 mmHg 65%
05:00 +4°C° 0 mm 0 mps 748 mmHg 66%
06:00 +6°C° 0 mm 0 mps 748 mmHg 63%
07:00 +7°C° 0 mm 0 mps 749 mmHg 60%
08:00 +8°C° 0 mm 0 mps 749 mmHg 57%
09:00 +10°C° 0 mm 0 mps 749 mmHg 54%
10:00 +12°C° 0 mm 1 mps 748 mmHg 50%
11:00 +13°C° 0 mm 1 mps 748 mmHg 47%
12:00 +14°C° 0 mm 2 mps 748 mmHg 45%
13:00 +14°C° 0 mm 2 mps 747 mmHg 43%
14:00 +14°C° 0 mm 3 mps 747 mmHg 41%
15:00 +14°C° 0 mm 3 mps 747 mmHg 42%
16:00 +14°C° 0 mm 4 mps 746 mmHg 43%
17:00 +14°C° 0 mm 4 mps 746 mmHg 44%
18:00 +13°C° 0 mm 4 mps 746 mmHg 50%
19:00 +13°C° 0 mm 4 mps 745 mmHg 57%
20:00 +12°C° 0 mm 4 mps 745 mmHg 64%
21:00 +10°C° 0.2 mm 5 mps 745 mmHg 71%
22:00 +10°C° 0.2 mm 5 mps 745 mmHg 77%
23:00 +9°C° 0.2 mm 6 mps 744 mmHg 84%
Show more